TimeMDT,TemperatureF,Dew PointF,Humidity,Sea Level PressureIn,VisibilityMPH,Wind Direction,Wind SpeedMPH,Gust SpeedMPH,PrecipitationIn,Events,Conditions,WindDirDegrees,DateUTC
12:15 AM,39.2,15.8,39,29.99,10.0,WNW,19.6,-,N/A,,Clear,290,2013-03-11 06:15:00
12:55 AM,41.0,15.8,36,29.99,10.0,West,19.6,-,N/A,,Clear,280,2013-03-11 06:55:00
1:14 AM,39.2,17.6,42,29.98,10.0,WNW,19.6,25.3,N/A,,Clear,290,2013-03-11 07:14:00
1:35 AM,41.0,17.6,39,29.97,10.0,WNW,23.0,28.8,N/A,,Clear,300,2013-03-11 07:35:00
1:55 AM,41.0,17.6,39,29.97,10.0,West,33.4,40.3,N/A,,Clear,280,2013-03-11 07:55:00
2:14 AM,41.0,17.6,39,29.97,10.0,WNW,24.2,32.2,N/A,,Clear,290,2013-03-11 08:14:00
2:35 AM,41.0,17.6,39,29.96,10.0,West,23.0,28.8,N/A,,Clear,280,2013-03-11 08:35:00
2:55 AM,41.0,15.8,36,29.95,10.0,West,24.2,-,N/A,,Clear,280,2013-03-11 08:55:00
3:14 AM,41.0,15.8,36,29.95,10.0,West,18.4,-,N/A,,Clear,280,2013-03-11 09:14:00
3:35 AM,41.0,17.6,39,29.95,10.0,West,13.8,-,N/A,,Clear,270,2013-03-11 09:35:00
3:55 AM,41.0,15.8,36,29.94,10.0,West,11.5,-,N/A,,Scattered Clouds,260,2013-03-11 09:55:00
4:15 AM,41.0,19.4,42,29.92,10.0,West,16.1,-,N/A,,Mostly Cloudy,270,2013-03-11 10:15:00
4:35 AM,37.4,19.4,48,29.92,10.0,West,17.3,-,N/A,,Scattered Clouds,260,2013-03-11 10:35:00
4:54 AM,37.4,17.6,45,29.92,10.0,West,18.4,-,N/A,,Clear,270,2013-03-11 10:54:00
5:15 AM,39.2,17.6,42,29.93,10.0,West,17.3,25.3,N/A,,Clear,260,2013-03-11 11:15:00
5:34 AM,37.4,17.6,45,29.93,10.0,West,15.0,-,N/A,,Clear,270,2013-03-11 11:34:00
5:55 AM,37.4,17.6,45,29.93,10.0,West,12.7,-,N/A,,Clear,260,2013-03-11 11:55:00
6:46 AM,44.6,10.4,25,29.96,40.0,West,15.0,-,N/A,,Mostly Cloudy,280,2013-03-11 12:46:00
7:50 AM,41.0,10.4,29,29.96,60.0,WNW,9.2,-,N/A,,Mostly Cloudy,300,2013-03-11 13:50:00
8:50 AM,39.2,15.8,39,29.97,60.0,West,26.5,32.2,N/A,,Mostly Cloudy,260,2013-03-11 14:50:00
9:55 AM,42.8,15.8,34,29.99,60.0,West,20.7,27.6,N/A,,Mostly Cloudy,260,2013-03-11 15:55:00
10:48 AM,44.6,15.8,31,29.98,60.0,West,25.3,-,N/A,,Mostly Cloudy,270,2013-03-11 16:48:00
11:49 AM,46.4,17.6,32,29.97,60.0,West,18.4,-,N/A,,Mostly Cloudy,260,2013-03-11 17:49:00
12:47 PM,46.4,15.8,29,29.94,60.0,West,28.8,36.8,N/A,,Mostly Cloudy,280,2013-03-11 18:47:00
1:49 PM,48.2,17.6,30,29.93,60.0,WNW,19.6,27.6,N/A,,Mostly Cloudy,290,2013-03-11 19:49:00
2:53 PM,50.0,17.6,28,29.92,60.0,WNW,28.8,38.0,N/A,,Mostly Cloudy,290,2013-03-11 20:53:00
3:53 PM,50.0,17.6,28,29.92,60.0,NW,19.6,40.3,N/A,,Mostly Cloudy,310,2013-03-11 21:53:00
4:53 PM,53.6,15.8,22,29.94,60.0,NNW,6.9,18.4,N/A,,Mostly Cloudy,340,2013-03-11 22:53:00
5:16 PM,37.4,28.4,70,29.97,60.0,NE,20.7,32.2,N/A,,Mostly Cloudy,50,2013-03-11 23:16:00
5:53 PM,35.6,28.4,75,29.98,50.0,NE,19.6,28.8,N/A,,Mostly Cloudy,40,2013-03-11 23:53:00
6:05 PM,35.6,28.4,75,30.00,40.0,NNE,17.3,23.0,N/A,,Overcast,20,2013-03-12 00:05:00
6:33 PM,35.6,28.4,75,30.04,20.0,NNE,10.4,-,N/A,Snow,Light Snow,20,2013-03-12 00:33:00
6:47 PM,33.8,28.4,81,30.04,4.0,NNE,10.4,-,N/A,Snow,Light Snow,20,2013-03-12 00:47:00
7:00 PM,33.8,28.4,81,30.04,1.0,NNE,9.2,-,N/A,Snow,Light Snow,30,2013-03-12 01:00:00
7:53 PM,32.0,30.2,93,30.07,1.5,ENE,5.8,-,N/A,Snow,Light Snow,60,2013-03-12 01:53:00
8:53 PM,30.2,30.2,100,30.09,1.0,Variable,4.6,-,N/A,Snow,Light Snow,0,2013-03-12 02:53:00
9:46 PM,30.2,30.2,100,30.10,2.0,ESE,3.5,-,N/A,Snow,Light Snow,120,2013-03-12 03:46:00
11:15 PM,32.0,32.0,100,30.14,2.0,Calm,Calm,-,N/A,Snow,Light Snow,0,2013-03-12 05:15:00
11:35 PM,32.0,32.0,100,30.13,4.0,Calm,Calm,-,N/A,Snow,Light Snow,0,2013-03-12 05:35:00
11:55 PM,30.2,30.2,100,30.14,3.0,Calm,Calm,-,N/A,Snow,Light Snow,0,2013-03-12 05:55:00